This is the latest recevied weather packets stored in our database for station/object KD7AWQ. If no packets are shown the sender has not sent any weather packets the latest 10 day(s).
| Time | Temp. | Humidity | Pressure | Rain* | Wind** | Luminosity | Snow |
|---|---|---|---|---|---|---|---|
| 1787704954 | 37.22° C | 11% | 1186.1 hPa | 0 mm | - | 108 W/m² | - |
| 1787704651 | 37.22° C | 12% | 1186.1 hPa | 0 mm | - | 81 W/m² | - |
| 1787704347 | 37.22° C | 12% | 1186 hPa | 0 mm | - | 189 W/m² | - |
| 1787704046 | 37.78° C | 11% | 1186 hPa | 0 mm | - | 64 W/m² | - |
| 1787703746 | 37.78° C | 11% | 1186.1 hPa | 0 mm | - | 232 W/m² | - |
| 1787703442 | 37.22° C | 12% | 1186.1 hPa | 0 mm | - | 256 W/m² | - |
| 1787703137 | 37.78° C | 11% | 1186.2 hPa | 0 mm | - | 121 W/m² | - |
| 1787702833 | 37.78° C | 11% | 1186.2 hPa | 0 mm | - | 288 W/m² | - |
| 1787702527 | 37.78° C | 11% | 1186.2 hPa | 0 mm | - | 336 W/m² | - |
| 1787702223 | 37.22° C | 12% | 1186.4 hPa | 0 mm | - | 363 W/m² | - |
| 1787701917 | 37.22° C | 12% | 1186.3 hPa | 0 mm | - | 224 W/m² | - |
| 1787701613 | 38.33° C | 12% | 1186.3 hPa | 0 mm | - | 290 W/m² | - |
| 1787701309 | 37.78° C | 12% | 1186.2 hPa | 0 mm | - | 97 W/m² | - |
| 1787701005 | 37.78° C | 12% | 1186.2 hPa | 0 mm | - | 400 W/m² | - |
| 1787700699 | 37.78° C | 12% | 1186.2 hPa | 0 mm | - | 480 W/m² | - |
| 1787700396 | 37.78° C | 13% | 1186.1 hPa | 0 mm | - | 514 W/m² | - |
| 1787700091 | 37.78° C | 13% | 1186.3 hPa | 0 mm | - | 408 W/m² | - |
| 1787699787 | 38.33° C | 12% | 1186.1 hPa | 0 mm | - | 530 W/m² | - |
| 1787699482 | 38.33° C | 12% | 1186.2 hPa | 0 mm | - | 571 W/m² | - |
| 1787699178 | 37.78° C | 13% | 1186.3 hPa | 0 mm | - | 608 W/m² | - |
| 1787698877 | 37.78° C | 13% | 1186.5 hPa | 0 mm | - | 658 W/m² | - |
| 1787698575 | 37.78° C | 13% | 1186.1 hPa | 0 mm | - | 542 W/m² | - |
| 1787698271 | 37.22° C | 13% | 1186.5 hPa | 0 mm | - | 714 W/m² | - |
| 1787697966 | 37.22° C | 13% | 1186.6 hPa | 0 mm | - | 565 W/m² | - |
| 1787697666 | 37.22° C | 13% | 1186.4 hPa | 0 mm | - | 265 W/m² | - |
* Rain latest hour (hover to see other rain measurements)
** Current wind speed in m/s (hover to see current wind gust speed)